Probability
0 0 0 0 0 0 0 0 0 0 0 0 0 0 0 0 0 0 0 0 0 0 0 0 0 0 0 0 0 0 0 0 0 0 0 1 2 2 1 1 0 0 0
0 0 0 0 0 0 0 0 0 0 0 0 0 0 0 0 0 0 0 0 0 0 0 0 0 0 0 0 0 0 0 0 0 0 0 1 2 2 1 1 1 0 0
0 0 0 0 0 0 0 0 0 0 0 0 0 0 0 0 0 0 0 0 0 0 0 0 0 0 0 0 0 0 0 0 0 0 0 0 1 1 1 2 1 0 0
0 0 0 0 0 0 0 0 0 0 0 0 0 0 0 0 0 0 0 0 0 0 0 0 0 0 0 0 0 0 0 0 0 0 0 0 1 1 0 1 1 0 0
0 0 0 0 0 0 0 0 0 0 0 0 0 0 0 0 0 0 0 0 0 0 0 0 0 0 0 0 1 1 0 0 0 0 0 0 1 0 0 0 0 0 0
0 0 0 0 0 0 0 0 0 0 0 0 0 0 0 0 0 0 0 0 0 0 0 0 0 0 0 0 1 1 1 1 1 1 0 0 0 0 0 0 0 0 0
0 0 0 0 0 0 0 0 0 0 0 0 0 0 0 0 0 0 0 0 0 0 0 0 0 0 0 0 1 1 1 2 2 2 1 0 0 0 0 0 0 0 0
0 0 0 0 0 0 0 0 0 0 0 0 0 0 0 0 0 0 0 0 0 0 0 0 0 0 0 0 0 0 1 1 2 2 1 0 0 1 1 0 0 0 0
0 0 0 0 0 0 0 0 0 0 0 0 0 0 0 0 0 0 0 0 0 0 0 0 0 0 0 0 0 0 0 0 1 1 0 0 0 1 2 1 0 0 0
0 0 0 0 0 0 0 0 0 0 0 0 0 0 0 0 0 0 0 0 0 0 0 0 0 0 0 0 0 0 0 0 0 0 0 0 0 1 1 1 0 0 0
0 0 0 0 0 0 0 0 0 0 0 0 0 0 0 0 0 0 0 0 0 0 0 0 0 0 0 0 0 0 0 0 0 0 0 0 0 0 0 1 1 1 0
0 0 0 0 0 0 0 0 0 0 0 0 0 0 0 0 0 0 0 0 0 0 0 0 0 0 0 0 0 0 0 0 0 0 0 0 0 1 1 1 2 1 0
0 0 0 0 0 0 0 0 0 0 0 0 0 0 0 0 0 0 0 0 0 0 0 0 0 0 0 0 0 0 0 0 0 0 0 0 0 1 2 2 2 1 0
0 0 0 0 0 0 0 0 0 0 0 0 0 0 0 0 0 0 0 0 0 0 0 0 0 0 0 0 0 0 0 0 0 0 0 0 0 1 1 1 1 0 0
0 0 0 0 0 0 0 0 0 0 0 0 0 0 0 0 0 0 0 0 0 0 0 0 0 0 0 0 0 0 0 0 0 0 0 0 0 0 0 0 0 0 0
0 0 0 0 0 0 0 0 0 0 0 0 0 0 0 0 0 0 0 0 0 0 0 0 0 0 0 0 0 0 0 0 0 1 1 1 0 0 0 0 0 0 0
0 0 0 0 0 0 0 0 0 0 0 0 0 0 0 0 0 0 0 0 0 0 0 0 0 0 0 0 0 0 0 0 1 2 2 1 0 0 0 0 0 0 0
0 0 0 0 0 0 0 0 0 0 0 0 0 0 0 0 0 0 0 0 0 0 0 0 0 0 0 0 0 0 0 0 1 2 2 1 0 0 0 0 0 0 0
0 0 0 0 0 0 0 0 0 0 0 0 0 0 0 0 0 0 0 0 0 0 0 0 0 0 0 0 0 0 0 0 0 1 2 1 0 0 0 0 0 0 0
0 0 0 0 0 0 0 0 0 0 0 0 0 0 0 0 0 0 0 0 0 1 1 0 0 0 0 0 0 0 0 0 0 0 1 1 0 0 0 0 0 0 0
0 0 0 0 0 0 0 0 0 0 0 0 0 0 0 0 0 0 0 0 0 1 2 1 1 1 0 0 0 0 0 0 0 0 0 0 0 0 0 0 0 0 0
0 0 0 0 0 0 0 0 0 0 0 0 0 0 0 0 0 0 0 0 0 1 2 2 2 2 1 1 0 0 0 0 0 0 0 0 0 0 0 0 0 0 0
0 0 0 0 0 0 0 0 0 0 0 0 0 0 0 0 0 0 0 0 0 0 1 1 1 2 2 1 0 0 0 0 0 0 0 0 0 0 0 0 0 0 0
0 0 0 0 0 0 0 0 0 0 0 0 0 0 0 0 0 0 0 0 0 0 0 0 0 1 1 1 0 0 0 0 0 0 0 0 0 0 0 0 0 0 0
0 0 0 0 0 0 0 0 0 0 0 0 0 0 0 0 0 0 0 0 0 0 0 0 0 0 0 0 0 0 0 0 0 0 0 0 0 0 0 0 0 0 0
0 0 0 0 0 0 0 0 0 0 0 0 0 0 0 0 0 0 0 0 0 0 0 0 0 0 0 0 0 0 0 0 0 0 0 0 0 0 0 0 0 0 0
Wind_Speed
2 2 2 2 2 2 2 2 3 3 3 4 4 4 3 2 2 2 2 2 3 3 2 2 2 1 1 1 1 1 1 1 1 1 0 1 1 1 1 1 3 3 3
2 2 2 2 3 3 3 3 3 4 3 4 4 4 3 3 3 2 3 3 3 3 3 2 2 2 2 2 1 2 1 1 2 2 1 0 1 2 2 1 2 3 3
1 2 2 3 3 3 3 4 4 5 5 4 4 3 3 3 3 3 3 3 3 3 3 3 3 2 2 2 3 2 2 2 2 2 1 1 1 1 1 0 1 1 3
1 1 2 3 2 2 3 4 5 5 6 5 5 4 4 4 3 3 3 3 3 3 3 3 3 2 2 2 2 3 2 2 2 2 1 1 1 1 2 1 1 1 1
1 1 2 3 3 3 3 3 4 5 7 6 5 5 5 4 3 3 4 5 4 4 4 3 3 4 3 3 2 1 1 1 2 2 2 1 1 1 2 2 2 1 1
1 1 2 3 3 3 3 4 4 5 6 5 6 5 5 4 5 5 4 5 5 5 5 4 5 5 6 6 5 4 3 3 3 2 2 3 3 3 2 2 2 2 1
2 2 2 3 3 3 4 4 4 5 5 5 6 6 5 5 6 6 7 5 6 6 6 5 5 4 6 5 6 7 6 6 5 4 3 3 3 3 3 3 2 2 2
3 3 3 3 3 4 4 5 5 5 5 4 5 6 6 6 7 7 7 6 6 6 6 6 5 4 4 4 4 4 5 5 6 5 4 3 3 3 3 3 3 2 1
4 4 4 4 4 4 5 5 5 5 5 5 5 6 6 6 7 7 6 4 5 6 6 6 5 4 5 5 4 4 4 4 6 7 7 6 4 3 3 2 2 2 2
5 6 5 5 5 5 5 5 5 5 5 6 6 6 6 6 7 7 5 3 5 5 4 4 6 6 6 5 4 4 5 4 4 5 5 5 5 4 4 3 3 3 2
5 6 6 6 5 6 5 4 5 5 5 6 6 6 6 6 7 7 6 4 4 5 4 4 3 6 6 7 6 5 6 4 4 5 5 4 4 3 3 3 3 3 3
5 6 6 6 6 6 5 5 5 5 5 6 6 6 4 5 5 6 8 8 6 5 5 4 3 6 6 7 6 6 7 5 3 3 4 4 4 4 3 4 3 3 3
5 6 6 6 6 5 5 4 4 4 4 5 5 5 5 4 4 7 8 8 9 6 5 6 7 7 6 6 8 9 7 4 4 4 4 4 4 5 4 3 3 3 3
6 6 6 6 6 6 5 4 4 4 4 5 5 5 5 5 4 3 3 4 6 6 6 7 8 8 6 7 7 6 5 5 5 5 4 4 3 4 4 4 3 3 3
6 6 6 5 5 5 5 5 5 5 5 6 5 6 6 6 7 9 6 5 4 5 6 5 4 3 4 4 5 5 5 5 6 4 4 4 4 4 4 3 4 3 3
6 5 4 4 4 4 5 6 8 9 11 13 12 11 9 11 13 13 13 12 12 11 7 5 6 6 6 6 6 6 6 7 7 6 5 5 5 5 4 4 4 4 4
6 5 4 5 5 5 5 6 7 8 10 12 13 14 14 14 14 14 14 13 13 10 7 7 7 7 7 7 6 6 7 7 7 7 6 6 5 5 5 5 4 4 3
5 6 6 4 5 5 6 6 6 7 7 6 8 11 13 14 14 14 13 9 7 6 6 7 7 7 6 6 6 6 6 6 6 7 7 7 7 6 6 6 5 5 4
5 4 4 5 5 6 6 6 6 8 7 7 6 7 11 11 12 12 10 6 6 7 7 7 7 7 6 6 6 6 6 6 7 7 7 8 7 7 6 6 6 7 5
4 8 8 6 6 6 6 6 6 7 7 7 6 6 6 6 6 6 6 6 6 7 7 7 7 7 6 6 6 6 6 6 7 7 7 7 7 7 7 8 7 7 5
4 6 10 8 6 6 6 6 7 7 7 7 7 8 11 7 7 7 7 6 7 7 7 7 7 7 6 6 6 7 7 7 7 6 7 7 7 7 7 7 7 7 6
4 5 5 6 6 6 7 7 7 7 9 10 8 8 12 8 7 7 7 7 7 7 7 7 7 6 6 6 6 6 7 7 7 7 7 6 7 7 7 7 7 7 7
5 6 6 7 7 9 9 7 7 8 8 9 9 8 8 7 7 7 8 7 6 7 7 6 7 7 6 6 6 6 7 7 7 7 8 7 7 7 7 8 9 9 8
6 7 7 8 8 7 7 8 8 8 8 9 9 9 8 7 7 8 8 7 6 7 7 6 7 9 9 7 6 5 6 6 6 7 10 9 8 7 8 8 8 9 8
6 7 7 8 8 7 8 8 8 9 9 9 9 9 8 8 8 8 7 7 8 8 9 8 7 8 9 9 8 7 8 9 8 6 7 7 8 8 9 10 9 9 8
7 8 8 7 7 7 8 8 8 9 9 9 8 8 8 9 8 8 7 7 7 7 8 7 8 9 9 8 8 9 10 10 10 10 7 7 8 8 9 8 10 9 10
Wind_Direction
2 344 350 350 338 327 307 304 290 285 287 286 281 284 279 268 241 213 231 246 267 275 269 240 238 239 274 275 262 249 241 185 219 269 248 156 148 136 146 191 162 167 176
3 358 356 2 344 331 318 314 307 297 290 287 289 292 293 285 270 237 239 245 246 252 261 268 263 239 230 233 243 251 229 212 188 217 251 164 158 168 168 198 183 168 163
20 5 6 351 338 329 329 326 317 316 313 303 298 300 301 298 290 274 252 244 245 245 240 242 254 253 248 230 221 233 226 214 183 186 217 196 210 181 150 202 161 148 168
25 3 347 330 329 323 323 322 325 328 320 313 312 309 303 303 302 296 298 279 261 256 243 229 234 234 244 253 237 235 223 208 192 191 204 207 198 193 153 169 175 206 184
13 352 330 324 329 326 323 319 324 322 315 310 316 317 313 307 305 317 314 303 290 275 257 233 214 206 211 224 229 236 235 207 196 193 206 203 198 172 181 185 178 188 187
356 345 328 324 329 320 315 314 316 310 307 314 313 309 306 307 315 308 303 304 296 284 272 250 224 214 217 218 213 203 195 205 205 205 204 201 201 189 182 176 175 165 205
353 346 329 325 321 316 313 308 300 295 294 301 302 298 291 285 286 290 281 283 285 283 279 270 259 228 213 215 218 218 222 222 212 202 200 205 196 188 176 181 190 184 199
1 344 331 323 317 313 305 296 290 292 293 287 287 288 286 281 277 275 278 276 277 275 275 273 261 241 230 220 218 217 215 222 218 207 199 201 187 181 179 187 191 178 173
3 346 338 331 315 301 293 288 285 288 289 286 283 282 284 281 271 268 266 277 276 271 269 274 272 254 240 233 228 224 216 215 207 187 181 179 166 164 156 142 160 158 195
353 340 332 321 307 296 288 286 284 280 278 283 283 280 282 281 270 267 267 271 282 282 274 264 262 258 253 234 233 228 224 218 198 192 190 191 190 186 175 167 170 172 177
336 328 317 311 303 293 286 288 291 288 285 282 283 280 278 282 277 269 261 264 279 291 285 273 259 252 254 251 239 231 230 216 202 192 184 185 183 179 181 184 173 167 174
324 317 310 306 303 306 295 288 291 295 294 288 286 289 284 279 278 275 269 264 279 286 286 282 268 257 256 260 253 236 229 219 204 197 187 188 187 187 183 179 172 165 161
322 318 311 311 309 307 305 303 299 294 290 292 294 294 296 295 285 280 272 277 282 283 284 287 275 266 257 252 246 235 221 214 203 202 197 196 191 183 173 172 171 152 132
321 318 316 318 319 322 320 306 299 297 294 292 292 291 290 288 285 280 280 288 286 284 283 283 277 258 246 244 243 234 222 208 200 203 195 189 177 171 173 170 168 160 145
317 319 320 318 316 314 311 306 302 289 283 287 287 289 293 291 285 281 280 275 270 267 283 283 268 252 244 246 238 223 217 210 207 202 193 186 181 178 179 170 161 158 162
317 320 316 311 309 310 309 309 302 292 291 287 280 279 283 282 290 286 280 279 275 272 272 265 254 242 236 233 234 230 223 214 204 198 194 187 183 179 175 168 162 163 168
310 313 312 312 312 307 304 303 305 303 294 290 288 287 283 283 286 284 281 279 276 271 262 259 252 244 239 232 229 228 227 223 205 194 191 187 180 175 172 170 169 169 172
305 308 308 302 302 302 299 298 297 299 302 298 294 291 289 285 282 280 279 281 277 260 248 254 256 249 244 238 232 231 225 221 213 197 188 185 180 176 176 173 172 173 172
300 296 297 295 292 292 292 293 293 293 292 294 297 298 295 291 285 278 275 264 263 263 256 253 254 256 251 242 235 231 227 220 216 200 190 184 180 175 177 175 172 175 170
286 290 295 293 290 290 291 291 291 291 292 291 291 293 297 297 292 284 267 261 262 263 261 256 253 253 255 248 239 229 229 223 213 206 192 184 180 177 177 175 173 172 172
286 290 294 294 288 289 290 291 292 291 293 293 288 286 291 289 283 281 275 265 261 262 261 258 254 252 251 247 240 232 230 227 209 200 192 184 178 175 173 171 170 167 162
290 289 290 292 292 291 291 292 292 293 294 294 292 288 287 281 277 276 276 275 268 265 259 255 256 252 245 241 237 232 231 228 213 195 187 185 178 171 167 166 164 163 162
287 290 293 292 291 292 292 288 289 290 291 293 295 294 287 281 280 280 277 274 275 274 268 259 258 258 251 243 237 231 230 224 210 195 182 179 177 173 167 165 165 163 164
291 288 289 291 291 289 290 291 290 291 292 292 293 293 288 280 279 280 280 278 277 279 276 268 262 258 255 253 242 235 234 222 203 194 181 176 177 173 166 163 164 163 160
286 286 286 286 286 289 291 291 292 293 293 293 293 292 292 289 283 280 277 277 278 279 281 276 268 257 248 244 243 240 226 211 203 188 177 171 170 170 165 162 160 159 156
280 282 283 283 282 286 288 289 290 293 294 293 294 293 292 290 286 283 278 275 275 278 281 277 269 262 250 241 240 235 216 201 191 181 177 170 166 166 163 160 157 156 153